Weather History for Fort Smith, AR

Change the Weather History Date:

Sunday, March 3, 2013

  Actual Average Record
Temperature  
Mean Temperature 47 °F 49 °F  
Max Temperature 64 °F 61 °F 81 °F (1976)
Min Temperature 29 °F 38 °F 8 °F (2002)
Degree Days  
Heating Degree Days 18 16  
Month to date heating degree days 71 49  
Since 1 July heating degree days 2394 2722  
Cooling Degree Days 0 0  
Month to date cooling degree days 0 0  
Year to date cooling degree days 1 1  
Moisture  
Dew Point 26 °F    
Average Humidity 56    
Maximum Humidity 85    
Minimum Humidity 27    
Precipitation  
Precipitation 0.00 in 0.11 in 4.66 in (2008)
Month to date precipitation 0.00 0.32  
Year to date precipitation 8.43 5.89  
Sea Level Pressure  
Sea Level Pressure 30.04 in    
Wind  
Wind Speed 7 mph (East)    
Max Wind Speed 13 mph    
Max Gust Speed 17 mph    
Visibility 10 miles    
Events      
T = Trace of Precipitation, MM = Missing Value Source: NWS Daily Summary

Daily Weather History Graph

Daily Weather History Graph

Search for Another Location

Airport:

Trip Planner

Search our weather history database for the weather conditions in past years. The results will help you decide how hot, cold, wet, or windy it might be!

Date:

Astronomy

Mar. 03, 2013 Rise Set
Actual Time 6:44 AM CST 6:14 PM CST
Civil Twilight 6:18 AM CST 6:40 PM CST
Nautical Twilight 5:49 AM CST 7:09 PM CST
Astronomical Twilight 5:19 AM CST 7:39 PM CST
Moon No Moon Rise 10:14 AM CST (3/3)
Length of Visible Light 12h 21m
Length of Day
11h 30m
Waning Gibbous, 63% of the Moon is Illuminated
Mar 3
Waning Gibbous
Mar 4
Last Quarter
Mar 11
New
Mar 19
First Quarter
Mar 27
Full

Hourly Weather History & Observations

Time (CST) Temp. Windchill Dew Point Humidity Pressure Visibility Wind Dir Wind Speed Gust Speed Precip Events Conditions
12:53 AM 30.0 °F - 23.0 °F 75% 30.24 in 10.0 mi Calm Calm - N/A   Partly Cloudy
1:53 AM 30.0 °F - 23.0 °F 75% 30.25 in 10.0 mi Calm Calm - N/A   Mostly Cloudy
2:53 AM 32.0 °F 28.7 °F 26.1 °F 79% 30.22 in 10.0 mi ENE 3.5 mph - N/A   Overcast
3:53 AM 30.0 °F 24.1 °F 23.0 °F 75% 30.20 in 10.0 mi ENE 5.8 mph - N/A   Partly Cloudy
4:53 AM 28.9 °F 25.2 °F 24.1 °F 82% 30.19 in 10.0 mi ENE 3.5 mph - N/A   Clear
5:53 AM 30.0 °F 24.1 °F 24.1 °F 79% 30.20 in 10.0 mi NE 5.8 mph - N/A   Clear
6:53 AM 28.9 °F 21.9 °F 23.0 °F 78% 30.19 in 10.0 mi ENE 6.9 mph - N/A   Clear
7:53 AM 32.0 °F 24.8 °F 24.1 °F 73% 30.21 in 10.0 mi East 8.1 mph - N/A   Clear
8:53 AM 37.0 °F 31.0 °F 24.1 °F 59% 30.19 in 10.0 mi East 8.1 mph - N/A   Clear
9:53 AM 41.0 °F 36.4 °F 23.0 °F 49% 30.17 in 10.0 mi East 6.9 mph - N/A   Clear
10:53 AM 46.0 °F 43.9 °F 24.1 °F 42% 30.15 in 10.0 mi Variable 4.6 mph - N/A   Mostly Cloudy
11:53 AM 52.0 °F - 23.0 °F 32% 30.10 in 10.0 mi ESE 8.1 mph - N/A   Partly Cloudy
12:53 PM 55.9 °F - 25.0 °F 30% 30.04 in 10.0 mi SE 9.2 mph - N/A   Clear
1:53 PM 60.1 °F - 28.0 °F 30% 29.99 in 10.0 mi SE 6.9 mph - N/A   Clear
2:53 PM 63.0 °F - 28.0 °F 27% 29.95 in 10.0 mi SE 9.2 mph - N/A   Clear
3:53 PM 62.1 °F - 28.0 °F 28% 29.93 in 10.0 mi ESE 9.2 mph - N/A   Clear
4:53 PM 62.1 °F - 28.0 °F 28% 29.91 in 10.0 mi SE 8.1 mph - N/A   Clear
5:53 PM 60.1 °F - 28.0 °F 30% 29.90 in 10.0 mi SE 8.1 mph - N/A   Clear
6:53 PM 57.0 °F - 28.9 °F 34% 29.90 in 10.0 mi SE 9.2 mph - N/A   Clear
7:53 PM 55.0 °F - 28.9 °F 37% 29.91 in 8.0 mi ESE 9.2 mph - N/A   Clear
7:56 PM 55.4 °F - 28.4 °F 36% 29.90 in 10.0 mi ESE 8.1 mph - N/A   Clear
8:53 PM 53.1 °F - 28.9 °F 40% 29.90 in 10.0 mi East 6.9 mph - N/A   Clear
9:53 PM 51.1 °F - 30.0 °F 44% 29.88 in 10.0 mi East 6.9 mph - N/A   Clear
10:53 PM 46.9 °F - 30.9 °F 54% 29.87 in 10.0 mi East 4.6 mph - N/A   Clear
11:53 PM 48.0 °F - 30.9 °F 52% 29.83 in 10.0 mi East 8.1 mph - N/A   Clear